Flag for Germany Weather past 2 weeks in Achern, Baden-Württemberg, Germany

Now
63 °F

Light rain. Partly cloudy.


Feels Like: 63 °F
Forecast: 63 / 74 °F
Wind: 8 mph from Southwest

Location: Karlsruhe - Baden Wurttemberg

Current Time: Jul 29, 2014 at 3:14:58 AM

Latest Report: Jul 29, 2014 at 12:50 AM


Visibility: N/A

Pressure: 29.83 "Hg

Humidity: 88%

Dew point: 59 °F

Location of AchernLocation

Historic Weather in Achern — Graph

°F

Achern temperature yesterday

Maximum temperature yesterday: 79 °F (at 12:20 PM)
Minimum temperature yesterday: 61 °F (at 10:20 PM)
Average temperature yesterday: 69 °F

Past Weeks' High & Low Weather Summary

 TemperatureHumidityPressure
High93 °F (Jul 19, 5:20 PM)94% (Jul 14, 7:20 AM)30.18 "Hg (Jul 14, 7:20 AM)
Low57 °F (Jul 15, 6:20 AM)24% (Jul 18, 4:20 PM)29.77 "Hg (Jul 28, 5:20 PM)
Average72 °F65%29.96 "Hg
* Reported Jul 14 12:20 AM — Jul 29 12:50 AM, Achern, Weather by CustomWeather, © 2014

Note: Actual official high and low records may vary slightly from our data, if they occured in-between our weather recording intervals... More about our weather records

Advertising

Achern weather history for previous 24 hours

 ConditionsComfort  
Time TempWeatherWind HumidityBarometerVisibility
12:50 AM
Jul 29
63 °FLight rain. Partly cloudy.8 mph88%29.83 "HgN/A
12:20 AM63 °FRain. Partly cloudy.6 mph88%29.83 "Hg6 mi
11:50 PM
Jul 28
61 °FThundershowers. Partly cloudy.5 mph94%29.86 "Hg4 mi
11:20 PM61 °FThunderstorms. Passing clouds.3 mph94%29.86 "Hg5 mi
10:50 PM61 °FThunderstorms. Partly cloudy.7 mph94%29.86 "Hg4 mi
10:20 PM61 °FRain. Partly cloudy.8 mph94%29.86 "Hg5 mi
9:50 PM63 °FRain showers. Broken clouds.8 mph88%29.86 "Hg4 mi
9:20 PM63 °FScattered showers. Broken clouds.9 mph88%29.86 "HgN/A
8:50 PM63 °FScattered showers. Broken clouds.9 mph94%29.86 "Hg5 mi
8:20 PM63 °FRain showers. Broken clouds.6 mph94%29.83 "Hg4 mi
7:50 PM63 °FThunderstorms. Broken clouds.14 mph88%29.83 "Hg2 mi
7:20 PM66 °FThunderstorms. Broken clouds.12 mph83%29.83 "Hg4 mi
6:50 PM70 °FScattered showers. Broken clouds.7 mph73%29.80 "HgN/A
6:20 PM73 °FScattered showers. Broken clouds.2 mph74%29.80 "HgN/A
5:50 PM73 °FScattered showers. Partly sunny.6 mph69%29.80 "Hg6 mi
5:20 PM73 °FScattered showers. Broken clouds.2 mph65%29.77 "HgN/A
4:50 PM73 °FScattered showers. Broken clouds.2 mph69%29.80 "HgN/A
4:20 PM73 °FScattered showers. Broken clouds.3 mph74%29.80 "HgN/A
3:50 PM72 °FThundershowers. Partly sunny.6 mph83%29.83 "Hg6 mi
3:20 PM70 °FThundershowers. Partly sunny.5 mph83%29.83 "Hg6 mi
2:50 PM70 °FThundershowers. Partly sunny.8 mph83%29.83 "Hg6 mi
2:20 PM73 °FThunderstorms. Partly sunny.10 mph74%29.83 "Hg6 mi
1:50 PM77 °FThundershowers. Broken clouds.3 mph57%29.83 "HgN/A
1:20 PM79 °FScattered showers. Partly sunny.5 mph58%29.83 "HgN/A
12:50 PM79 °FPassing clouds.6 mph58%29.86 "HgN/A
12:20 PM79 °FSunny.3 mph58%29.86 "Hg10 mi
11:50 AM77 °FPassing clouds.5 mph57%29.86 "HgN/A
11:20 AM75 °FPassing clouds.6 mph65%29.86 "HgN/A
10:50 AM73 °FPassing clouds.5 mph69%29.86 "HgN/A
10:20 AM73 °FPassing clouds.5 mph69%29.89 "HgN/A
9:50 AM73 °FSunny.1 mph69%29.89 "Hg10 mi
9:20 AM72 °FSunny.1 mph73%29.89 "Hg10 mi
8:50 AM70 °FSunny.1 mph78%29.89 "Hg10 mi
8:20 AM68 °FScattered showers. Clear.1 mph83%29.89 "HgN/A
7:50 AM68 °FSunny.1 mph83%29.89 "Hg10 mi
7:20 AM66 °FSunny.No wind88%29.89 "Hg10 mi
6:50 AM66 °FClear.1 mph83%29.89 "Hg10 mi
6:20 AM66 °FClear.1 mph83%29.89 "Hg10 mi
5:50 AM66 °FClear.No wind83%29.89 "Hg10 mi
5:20 AM66 °FClear.3 mph83%29.89 "Hg10 mi
Weather by CustomWeather, © 2014

See weather overviewHow to use our weather pages